Nur fliegen ist schöner ....

Willkommen beim Flugservice Bautzen GmbH

Wir sind eine nach europäischen Richtlinien zugelassene Flugschule und lizenziertes Luftfahrtunternehmen. Bei uns können sie nicht nur Rundflüge über die Oberlausitz oder Sachsen buchen, sondern in unserer Flugschule selber das Fliegen erlernen. Erfahrene Fluglehrer stehen Ihnen dabei zur Seite.

Wir bieten Ihnen außerdem spezielle Flüge zur Vermessung oder Fotoflüge für Luftbildaufnahmen an. In Zusammenarbeit mit dem Fallschirmsportclub Dresden und dem Cottbuser Fallschirmsportclub setzen wir am Flugplatz Bautzen und Neuhausen Fallschirmspringer ab.
Schauen Sie sich in Ruhe bei uns um und wenn Sie Fragen haben oder weitere Informationen benötigen, scheuen Sie sich nicht Kontakt mit uns aufzunehmen.

Gutscheine für Rundflüge und Tandemsprünge können Sie ganz leicht auch online in unserem Shop erwerben.

Terminkalender

Letzter Monat November 2019 Nächster Monat
Mo Di Mi Do Fr Sa So
week 44 1 2 3
week 45 4 5 6 7 8 9 10
week 46 11 12 13 14 15 16 17
week 47 18 19 20 21 22 23 24
week 48 25 26 27 28 29 30

Flugwetterinfo

[Quelle: ADDS]
METAR
EDDC 182220Z 18010KT CAVOK 04/01 Q1013 =
EDDC 181700Z 1818/1918 20004KT CAVOK BECMG 1818/1820 17009KT BECMG 1911/1913 12004KT
TAF
EDDC 181700Z 1818/1918 20004KT CAVOK BECMG 1818/1820 17009KT BECMG 1911/1913 12004KT =
SR / SS: 06:23 / 15:10 UTC (EDAB Flugplatz Bautzen 2019-11-18)

Öffnungszeiten

des Flugplatzes Bautzen erfahren Sie hier:

flugplatz bautzen logo
Flugservice Bautzen GmbH, Kornmarkt 34, 02625 Bautzen  Telefon: +49 (3591) 211105, Telefax: +49 (3591) 274512, E-Mail:  flugservice(at)fsbautzen.de